Information on these data can be found in provided Readme document
Contact Info: Zachary Fasnacht (zachary.fasnacht@ssaihq.com); Nickolay Krotkov (nickolay.a.krotkov@nasa.gov); Lok Lamsal (lok.lamsal@nasa.gov)

FillValue: -999.
ScaleFactor: 1e15
Units: molecules/cm^2

Date(yyyy-mm-dd),City,Country,LonCenter,LatCenter,BoundingCoordinates,Median,Q1,Q3,Mean,Baseline_Median,Baseline_Q1,Baseline_Q3,Baseline_Mean,NumGoodSamples,NumTotalSamples
2015-01-01,Brisbane,Australia,153.1333,-27.4833,[152.6333 -27.9833 153.6333 -26.9833],0.847,0.433,1.488,0.793,0.893,0.382,1.47,0.901,147.0,566.0
2015-01-02,Brisbane,Australia,153.1333,-27.4833,[152.6333 -27.9833 153.6333 -26.9833],0.892,0.469,1.525,0.848,0.882,0.4,1.489,0.913,176.0,554.0
2015-01-03,Brisbane,Australia,153.1333,-27.4833,[152.6333 -27.9833 153.6333 -26.9833],0.908,0.51,1.559,0.89,0.899,0.422,1.499,0.936,160.0,562.0
2015-01-04,Brisbane,Australia,153.1333,-27.4833,[152.6333 -27.9833 153.6333 -26.9833],0.908,0.51,1.559,0.89,0.883,0.416,1.508,0.94,160.0,560.0
2015-01-05,Brisbane,Australia,153.1333,-27.4833,[152.6333 -27.9833 153.6333 -26.9833],0.908,0.491,1.559,0.885,0.919,0.421,1.53,0.959,171.0,579.0
2015-01-06,Brisbane,Australia,153.1333,-27.4833,[152.6333 -27.9833 153.6333 -26.9833],0.908,0.51,1.559,0.881,0.91,0.388,1.502,0.931,162.0,568.0
2015-01-07,Brisbane,Australia,153.1333,-27.4833,[152.6333 -27.9833 153.6333 -26.9833],0.892,0.488,1.429,0.824,0.949,0.445,1.519,0.962,144.0,570.0
2015-01-08,Brisbane,Australia,153.1333,-27.4833,[152.6333 -27.9833 153.6333 -26.9833],0.892,0.51,1.429,0.977,0.944,0.436,1.515,0.978,147.0,576.0
2015-01-09,Brisbane,Australia,153.1333,-27.4833,[152.6333 -27.9833 153.6333 -26.9833],0.908,0.51,1.488,1.012,0.929,0.46,1.522,0.988,169.0,557.0
2015-01-10,Brisbane,Australia,153.1333,-27.4833,[152.6333 -27.9833 153.6333 -26.9833],0.932,0.457,1.566,1.018,0.93,0.483,1.525,0.997,150.0,513.0
2015-01-11,Brisbane,Australia,153.1333,-27.4833,[152.6333 -27.9833 153.6333 -26.9833],0.895,0.538,1.481,0.991,0.947,0.507,1.508,1.0,189.0,508.0
2015-01-12,Brisbane,Australia,153.1333,-27.4833,[152.6333 -27.9833 153.6333 -26.9833],0.895,0.548,1.481,1.005,0.946,0.515,1.527,1.013,162.0,526.0
2015-01-13,Brisbane,Australia,153.1333,-27.4833,[152.6333 -27.9833 153.6333 -26.9833],0.984,0.559,1.526,1.074,0.962,0.525,1.516,1.019,172.0,520.0
2015-01-14,Brisbane,Australia,153.1333,-27.4833,[152.6333 -27.9833 153.6333 -26.9833],0.909,0.548,1.481,1.026,0.946,0.498,1.471,0.994,170.0,529.0
2015-01-15,Brisbane,Australia,153.1333,-27.4833,[152.6333 -27.9833 153.6333 -26.9833],0.932,0.548,1.481,1.029,0.983,0.505,1.497,1.016,167.0,528.0
2015-01-16,Brisbane,Australia,153.1333,-27.4833,[152.6333 -27.9833 153.6333 -26.9833],0.932,0.548,1.481,1.038,0.981,0.51,1.512,1.024,166.0,516.0
2015-01-17,Brisbane,Australia,153.1333,-27.4833,[152.6333 -27.9833 153.6333 -26.9833],0.946,0.539,1.481,1.044,0.977,0.493,1.488,0.998,146.0,521.0
2015-01-18,Brisbane,Australia,153.1333,-27.4833,[152.6333 -27.9833 153.6333 -26.9833],0.932,0.501,1.435,1.022,1.008,0.497,1.499,1.017,174.0,508.0
2015-01-19,Brisbane,Australia,153.1333,-27.4833,[152.6333 -27.9833 153.6333 -26.9833],0.932,0.501,1.435,1.022,0.992,0.489,1.469,1.006,174.0,515.0
2015-01-20,Brisbane,Australia,153.1333,-27.4833,[152.6333 -27.9833 153.6333 -26.9833],0.946,0.502,1.376,1.012,1.003,0.476,1.453,1.0,184.0,515.0
2015-01-21,Brisbane,Australia,153.1333,-27.4833,[152.6333 -27.9833 153.6333 -26.9833],0.946,0.502,1.379,1.029,0.999,0.479,1.468,1.002,182.0,535.0
2015-01-22,Brisbane,Australia,153.1333,-27.4833,[152.6333 -27.9833 153.6333 -26.9833],0.895,0.501,1.376,1.001,0.944,0.438,1.418,0.966,188.0,523.0
2015-01-23,Brisbane,Australia,153.1333,-27.4833,[152.6333 -27.9833 153.6333 -26.9833],0.893,0.494,1.376,0.984,0.949,0.456,1.441,0.965,194.0,524.0
2015-01-24,Brisbane,Australia,153.1333,-27.4833,[152.6333 -27.9833 153.6333 -26.9833],0.885,0.502,1.376,0.976,0.958,0.441,1.485,0.976,192.0,530.0
2015-01-25,Brisbane,Australia,153.1333,-27.4833,[152.6333 -27.9833 153.6333 -26.9833],0.856,0.456,1.333,0.942,0.964,0.467,1.478,0.99,213.0,558.0
2015-01-26,Brisbane,Australia,153.1333,-27.4833,[152.6333 -27.9833 153.6333 -26.9833],0.893,0.379,1.376,0.95,0.977,0.462,1.483,0.989,174.0,562.0
2015-01-27,Brisbane,Australia,153.1333,-27.4833,[152.6333 -27.9833 153.6333 -26.9833],0.942,0.409,1.376,0.963,0.949,0.449,1.467,0.959,189.0,556.0
2015-01-28,Brisbane,Australia,153.1333,-27.4833,[152.6333 -27.9833 153.6333 -26.9833],0.864,0.38,1.365,0.892,0.948,0.458,1.49,0.963,173.0,572.0
2015-01-29,Brisbane,Australia,153.1333,-27.4833,[152.6333 -27.9833 153.6333 -26.9833],0.898,0.456,1.371,0.938,0.975,0.455,1.518,0.986,176.0,564.0
2015-01-30,Brisbane,Australia,153.1333,-27.4833,[152.6333 -27.9833 153.6333 -26.9833],0.939,0.456,1.376,0.963,0.957,0.445,1.488,0.973,203.0,573.0
2015-01-31,Brisbane,Australia,153.1333,-27.4833,[152.6333 -27.9833 153.6333 -26.9833],0.906,0.44,1.376,0.932,0.929,0.437,1.467,0.948,216.0,577.0
2015-02-01,Brisbane,Australia,153.1333,-27.4833,[152.6333 -27.9833 153.6333 -26.9833],0.998,0.456,1.4,0.972,0.945,0.438,1.463,0.96,229.0,565.0
2015-02-02,Brisbane,Australia,153.1333,-27.4833,[152.6333 -27.9833 153.6333 -26.9833],0.998,0.535,1.419,0.979,0.916,0.438,1.444,0.952,208.0,569.0
2015-02-03,Brisbane,Australia,153.1333,-27.4833,[152.6333 -27.9833 153.6333 -26.9833],0.998,0.525,1.419,0.969,0.934,0.494,1.471,0.976,220.0,558.0
2015-02-04,Brisbane,Australia,153.1333,-27.4833,[152.6333 -27.9833 153.6333 -26.9833],1.035,0.525,1.454,0.983,0.964,0.471,1.515,0.989,199.0,563.0
2015-02-05,Brisbane,Australia,153.1333,-27.4833,[152.6333 -27.9833 153.6333 -26.9833],1.023,0.445,1.43,0.979,0.979,0.474,1.525,1.003,225.0,562.0
2015-02-06,Brisbane,Australia,153.1333,-27.4833,[152.6333 -27.9833 153.6333 -26.9833],1.04,0.523,1.454,1.008,0.984,0.476,1.54,1.012,243.0,581.0
2015-02-07,Brisbane,Australia,153.1333,-27.4833,[152.6333 -27.9833 153.6333 -26.9833],1.036,0.445,1.397,0.956,0.97,0.426,1.498,0.988,226.0,569.0
2015-02-08,Brisbane,Australia,153.1333,-27.4833,[152.6333 -27.9833 153.6333 -26.9833],1.001,0.435,1.386,0.92,0.975,0.453,1.525,0.995,224.0,571.0
2015-02-09,Brisbane,Australia,153.1333,-27.4833,[152.6333 -27.9833 153.6333 -26.9833],1.012,0.445,1.454,0.938,0.984,0.431,1.519,0.989,223.0,578.0
2015-02-10,Brisbane,Australia,153.1333,-27.4833,[152.6333 -27.9833 153.6333 -26.9833],0.965,0.428,1.397,0.89,0.96,0.429,1.51,0.973,233.0,558.0
2015-02-11,Brisbane,Australia,153.1333,-27.4833,[152.6333 -27.9833 153.6333 -26.9833],0.939,0.414,1.4,0.872,0.992,0.451,1.568,1.013,218.0,516.0
2015-02-12,Brisbane,Australia,153.1333,-27.4833,[152.6333 -27.9833 153.6333 -26.9833],0.939,0.414,1.4,0.874,0.989,0.433,1.599,1.027,216.0,512.0
2015-02-13,Brisbane,Australia,153.1333,-27.4833,[152.6333 -27.9833 153.6333 -26.9833],0.833,0.307,1.397,0.848,0.976,0.43,1.596,1.029,192.0,529.0
2015-02-14,Brisbane,Australia,153.1333,-27.4833,[152.6333 -27.9833 153.6333 -26.9833],0.796,0.275,1.359,0.809,0.967,0.455,1.573,1.026,165.0,522.0
2015-02-15,Brisbane,Australia,153.1333,-27.4833,[152.6333 -27.9833 153.6333 -26.9833],0.803,0.275,1.359,0.828,0.961,0.459,1.544,1.019,166.0,530.0
2015-02-16,Brisbane,Australia,153.1333,-27.4833,[152.6333 -27.9833 153.6333 -26.9833],0.796,0.302,1.358,0.828,0.948,0.463,1.53,1.022,163.0,532.0
2015-02-17,Brisbane,Australia,153.1333,-27.4833,[152.6333 -27.9833 153.6333 -26.9833],0.813,0.302,1.386,0.855,0.97,0.489,1.527,1.018,181.0,521.0
2015-02-18,Brisbane,Australia,153.1333,-27.4833,[152.6333 -27.9833 153.6333 -26.9833],0.844,0.318,1.362,0.848,0.954,0.465,1.532,1.004,178.0,526.0
2015-02-19,Brisbane,Australia,153.1333,-27.4833,[152.6333 -27.9833 153.6333 -26.9833],0.932,0.428,1.358,0.901,0.968,0.49,1.52,1.016,197.0,515.0
2015-02-20,Brisbane,Australia,153.1333,-27.4833,[152.6333 -27.9833 153.6333 -26.9833],0.932,0.307,1.456,0.886,0.963,0.471,1.528,1.016,171.0,519.0
2015-02-21,Brisbane,Australia,153.1333,-27.4833,[152.6333 -27.9833 153.6333 -26.9833],0.883,0.5,1.369,0.913,0.947,0.505,1.506,1.024,174.0,519.0
2015-02-22,Brisbane,Australia,153.1333,-27.4833,[152.6333 -27.9833 153.6333 -26.9833],0.883,0.441,1.405,0.919,0.949,0.486,1.51,1.023,198.0,539.0
2015-02-23,Brisbane,Australia,153.1333,-27.4833,[152.6333 -27.9833 153.6333 -26.9833],0.883,0.484,1.339,0.92,0.929,0.481,1.473,1.013,187.0,527.0
2015-02-24,Brisbane,Australia,153.1333,-27.4833,[152.6333 -27.9833 153.6333 -26.9833],0.883,0.441,1.405,0.969,0.953,0.461,1.502,1.046,195.0,529.0
2015-02-25,Brisbane,Australia,153.1333,-27.4833,[152.6333 -27.9833 153.6333 -26.9833],0.951,0.606,1.68,1.116,0.974,0.49,1.58,1.074,205.0,537.0
2015-02-26,Brisbane,Australia,153.1333,-27.4833,[152.6333 -27.9833 153.6333 -26.9833],1.017,0.632,1.71,1.149,0.945,0.478,1.5,1.041,227.0,565.0
2015-02-27,Brisbane,Australia,153.1333,-27.4833,[152.6333 -27.9833 153.6333 -26.9833],1.017,0.632,1.71,1.149,0.946,0.476,1.522,1.054,227.0,567.0
2015-02-28,Brisbane,Australia,153.1333,-27.4833,[152.6333 -27.9833 153.6333 -26.9833],0.951,0.617,1.646,1.074,0.925,0.458,1.514,1.024,263.0,561.0
2015-03-01,Brisbane,Australia,153.1333,-27.4833,[152.6333 -27.9833 153.6333 -26.9833],0.951,0.617,1.646,1.076,0.922,0.46,1.524,1.03,266.0,577.0
2015-03-02,Brisbane,Australia,153.1333,-27.4833,[152.6333 -27.9833 153.6333 -26.9833],0.923,0.604,1.516,1.059,0.929,0.445,1.531,1.046,281.0,569.0
2015-03-03,Brisbane,Australia,153.1333,-27.4833,[152.6333 -27.9833 153.6333 -26.9833],0.913,0.604,1.507,1.037,0.935,0.428,1.551,1.046,295.0,578.0
2015-03-04,Brisbane,Australia,153.1333,-27.4833,[152.6333 -27.9833 153.6333 -26.9833],0.913,0.604,1.508,1.047,0.939,0.422,1.588,1.049,283.0,582.0
2015-03-05,Brisbane,Australia,153.1333,-27.4833,[152.6333 -27.9833 153.6333 -26.9833],0.916,0.607,1.516,1.094,0.906,0.401,1.565,1.063,298.0,568.0
2015-03-06,Brisbane,Australia,153.1333,-27.4833,[152.6333 -27.9833 153.6333 -26.9833],0.901,0.604,1.523,1.095,0.888,0.383,1.531,1.045,288.0,572.0
2015-03-07,Brisbane,Australia,153.1333,-27.4833,[152.6333 -27.9833 153.6333 -26.9833],0.861,0.554,1.505,1.046,0.875,0.379,1.526,1.029,311.0,561.0
2015-03-08,Brisbane,Australia,153.1333,-27.4833,[152.6333 -27.9833 153.6333 -26.9833],0.841,0.47,1.572,1.056,0.869,0.39,1.53,1.036,281.0,565.0
2015-03-09,Brisbane,Australia,153.1333,-27.4833,[152.6333 -27.9833 153.6333 -26.9833],0.937,0.58,1.505,1.081,0.89,0.425,1.5,1.052,283.0,566.0
2015-03-10,Brisbane,Australia,153.1333,-27.4833,[152.6333 -27.9833 153.6333 -26.9833],0.962,0.58,1.523,1.08,0.888,0.413,1.508,1.042,297.0,586.0
2015-03-11,Brisbane,Australia,153.1333,-27.4833,[152.6333 -27.9833 153.6333 -26.9833],0.987,0.589,1.507,1.089,0.885,0.392,1.444,0.998,280.0,573.0
2015-03-12,Brisbane,Australia,153.1333,-27.4833,[152.6333 -27.9833 153.6333 -26.9833],0.986,0.58,1.43,1.049,0.914,0.423,1.433,1.0,287.0,573.0
2015-03-13,Brisbane,Australia,153.1333,-27.4833,[152.6333 -27.9833 153.6333 -26.9833],0.962,0.546,1.375,1.043,0.942,0.456,1.478,1.036,283.0,580.0
2015-03-14,Brisbane,Australia,153.1333,-27.4833,[152.6333 -27.9833 153.6333 -26.9833],0.962,0.546,1.375,1.043,0.94,0.447,1.462,1.008,283.0,560.0
2015-03-15,Brisbane,Australia,153.1333,-27.4833,[152.6333 -27.9833 153.6333 -26.9833],1.052,0.537,1.472,1.101,0.977,0.469,1.547,1.056,247.0,517.0
2015-03-16,Brisbane,Australia,153.1333,-27.4833,[152.6333 -27.9833 153.6333 -26.9833],1.027,0.549,1.445,1.095,0.976,0.465,1.543,1.055,277.0,513.0
2015-03-17,Brisbane,Australia,153.1333,-27.4833,[152.6333 -27.9833 153.6333 -26.9833],1.052,0.576,1.472,1.126,0.965,0.448,1.562,1.062,253.0,529.0
2015-03-18,Brisbane,Australia,153.1333,-27.4833,[152.6333 -27.9833 153.6333 -26.9833],1.026,0.565,1.43,1.085,0.968,0.45,1.596,1.086,248.0,520.0
2015-03-19,Brisbane,Australia,153.1333,-27.4833,[152.6333 -27.9833 153.6333 -26.9833],1.027,0.565,1.461,1.113,0.979,0.432,1.582,1.075,262.0,526.0
2015-03-20,Brisbane,Australia,153.1333,-27.4833,[152.6333 -27.9833 153.6333 -26.9833],1.052,0.546,1.476,1.118,0.99,0.455,1.638,1.1,260.0,529.0
2015-03-21,Brisbane,Australia,153.1333,-27.4833,[152.6333 -27.9833 153.6333 -26.9833],1.069,0.546,1.535,1.111,1.016,0.449,1.719,1.12,268.0,519.0
2015-03-22,Brisbane,Australia,153.1333,-27.4833,[152.6333 -27.9833 153.6333 -26.9833],1.142,0.572,1.633,1.155,0.999,0.427,1.712,1.117,253.0,523.0
2015-03-23,Brisbane,Australia,153.1333,-27.4833,[152.6333 -27.9833 153.6333 -26.9833],1.145,0.572,1.701,1.186,1.033,0.408,1.763,1.15,258.0,507.0
2015-03-24,Brisbane,Australia,153.1333,-27.4833,[152.6333 -27.9833 153.6333 -26.9833],1.163,0.528,1.804,1.221,0.982,0.416,1.746,1.129,222.0,511.0
2015-03-25,Brisbane,Australia,153.1333,-27.4833,[152.6333 -27.9833 153.6333 -26.9833],1.168,0.533,1.808,1.252,1.007,0.428,1.812,1.157,201.0,511.0
2015-03-26,Brisbane,Australia,153.1333,-27.4833,[152.6333 -27.9833 153.6333 -26.9833],1.162,0.528,1.804,1.218,1.002,0.439,1.768,1.149,194.0,532.0
2015-03-27,Brisbane,Australia,153.1333,-27.4833,[152.6333 -27.9833 153.6333 -26.9833],1.026,0.522,1.717,1.181,0.976,0.426,1.734,1.147,176.0,522.0
2015-03-28,Brisbane,Australia,153.1333,-27.4833,[152.6333 -27.9833 153.6333 -26.9833],1.026,0.522,1.717,1.14,1.014,0.423,1.73,1.123,170.0,521.0
2015-03-29,Brisbane,Australia,153.1333,-27.4833,[152.6333 -27.9833 153.6333 -26.9833],1.092,0.522,1.72,1.149,1.033,0.416,1.7,1.127,188.0,531.0
2015-03-30,Brisbane,Australia,153.1333,-27.4833,[152.6333 -27.9833 153.6333 -26.9833],1.026,0.489,1.717,1.124,1.011,0.377,1.673,1.091,207.0,555.0
2015-03-31,Brisbane,Australia,153.1333,-27.4833,[152.6333 -27.9833 153.6333 -26.9833],1.097,0.427,1.862,1.141,1.017,0.383,1.735,1.116,174.0,557.0
2015-04-01,Brisbane,Australia,153.1333,-27.4833,[152.6333 -27.9833 153.6333 -26.9833],1.116,0.509,1.778,1.149,1.067,0.425,1.755,1.144,208.0,553.0
2015-04-02,Brisbane,Australia,153.1333,-27.4833,[152.6333 -27.9833 153.6333 -26.9833],1.235,0.533,1.843,1.22,1.113,0.455,1.81,1.171,186.0,570.0
2015-04-03,Brisbane,Australia,153.1333,-27.4833,[152.6333 -27.9833 153.6333 -26.9833],1.079,0.528,1.741,1.142,1.176,0.495,1.861,1.211,177.0,563.0
2015-04-04,Brisbane,Australia,153.1333,-27.4833,[152.6333 -27.9833 153.6333 -26.9833],0.949,0.509,1.717,1.071,1.144,0.453,1.817,1.178,174.0,569.0
2015-04-05,Brisbane,Australia,153.1333,-27.4833,[152.6333 -27.9833 153.6333 -26.9833],0.916,0.509,1.7,1.048,1.118,0.438,1.806,1.162,181.0,569.0
2015-04-06,Brisbane,Australia,153.1333,-27.4833,[152.6333 -27.9833 153.6333 -26.9833],0.997,0.556,1.731,1.154,1.138,0.46,1.809,1.197,194.0,557.0
2015-04-07,Brisbane,Australia,153.1333,-27.4833,[152.6333 -27.9833 153.6333 -26.9833],0.997,0.556,1.731,1.146,1.14,0.461,1.814,1.188,197.0,565.0
2015-04-08,Brisbane,Australia,153.1333,-27.4833,[152.6333 -27.9833 153.6333 -26.9833],1.116,0.614,1.741,1.242,1.17,0.466,1.806,1.215,213.0,549.0
2015-04-09,Brisbane,Australia,153.1333,-27.4833,[152.6333 -27.9833 153.6333 -26.9833],1.116,0.614,1.741,1.242,1.169,0.455,1.821,1.205,213.0,555.0
2015-04-10,Brisbane,Australia,153.1333,-27.4833,[152.6333 -27.9833 153.6333 -26.9833],1.027,0.625,1.712,1.187,1.15,0.466,1.817,1.206,243.0,554.0
2015-04-11,Brisbane,Australia,153.1333,-27.4833,[152.6333 -27.9833 153.6333 -26.9833],1.027,0.631,1.712,1.198,1.171,0.472,1.897,1.25,265.0,572.0
2015-04-12,Brisbane,Australia,153.1333,-27.4833,[152.6333 -27.9833 153.6333 -26.9833],1.027,0.607,1.712,1.183,1.158,0.461,1.902,1.253,258.0,562.0
2015-04-13,Brisbane,Australia,153.1333,-27.4833,[152.6333 -27.9833 153.6333 -26.9833],0.952,0.605,1.675,1.179,1.11,0.478,1.89,1.243,240.0,563.0
2015-04-14,Brisbane,Australia,153.1333,-27.4833,[152.6333 -27.9833 153.6333 -26.9833],1.042,0.682,1.717,1.251,1.156,0.533,1.898,1.285,237.0,574.0
2015-04-15,Brisbane,Australia,153.1333,-27.4833,[152.6333 -27.9833 153.6333 -26.9833],1.079,0.703,1.747,1.293,1.164,0.544,1.914,1.284,259.0,554.0
2015-04-16,Brisbane,Australia,153.1333,-27.4833,[152.6333 -27.9833 153.6333 -26.9833],1.048,0.694,1.873,1.335,1.15,0.55,1.945,1.293,220.0,510.0
2015-04-17,Brisbane,Australia,153.1333,-27.4833,[152.6333 -27.9833 153.6333 -26.9833],1.133,0.705,1.93,1.345,1.156,0.536,1.999,1.29,234.0,483.0
2015-04-18,Brisbane,Australia,153.1333,-27.4833,[152.6333 -27.9833 153.6333 -26.9833],1.198,0.728,1.969,1.373,1.105,0.527,1.923,1.26,218.0,500.0
2015-04-19,Brisbane,Australia,153.1333,-27.4833,[152.6333 -27.9833 153.6333 -26.9833],1.133,0.662,1.836,1.297,1.158,0.573,2.004,1.298,229.0,494.0
2015-04-20,Brisbane,Australia,153.1333,-27.4833,[152.6333 -27.9833 153.6333 -26.9833],1.187,0.703,1.969,1.412,1.165,0.581,2.032,1.326,237.0,501.0
2015-04-21,Brisbane,Australia,153.1333,-27.4833,[152.6333 -27.9833 153.6333 -26.9833],1.261,0.728,2.258,1.49,1.161,0.564,2.084,1.341,238.0,502.0
2015-04-22,Brisbane,Australia,153.1333,-27.4833,[152.6333 -27.9833 153.6333 -26.9833],1.246,0.703,2.163,1.469,1.135,0.528,1.999,1.299,230.0,490.0
2015-04-23,Brisbane,Australia,153.1333,-27.4833,[152.6333 -27.9833 153.6333 -26.9833],1.143,0.615,1.969,1.413,1.143,0.535,1.999,1.315,214.0,498.0
2015-04-24,Brisbane,Australia,153.1333,-27.4833,[152.6333 -27.9833 153.6333 -26.9833],1.143,0.615,1.969,1.413,1.173,0.601,2.034,1.344,214.0,487.0
2015-04-25,Brisbane,Australia,153.1333,-27.4833,[152.6333 -27.9833 153.6333 -26.9833],1.339,0.612,2.379,1.584,1.22,0.615,2.155,1.4,180.0,492.0
2015-04-26,Brisbane,Australia,153.1333,-27.4833,[152.6333 -27.9833 153.6333 -26.9833],1.339,0.612,2.341,1.562,1.199,0.578,2.07,1.372,167.0,491.0
2015-04-27,Brisbane,Australia,153.1333,-27.4833,[152.6333 -27.9833 153.6333 -26.9833],1.339,0.655,2.379,1.645,1.209,0.596,2.106,1.406,197.0,512.0
2015-04-28,Brisbane,Australia,153.1333,-27.4833,[152.6333 -27.9833 153.6333 -26.9833],1.336,0.593,2.41,1.574,1.209,0.577,2.089,1.4,207.0,498.0
2015-04-29,Brisbane,Australia,153.1333,-27.4833,[152.6333 -27.9833 153.6333 -26.9833],1.338,0.575,2.521,1.601,1.251,0.601,2.139,1.427,219.0,498.0
2015-04-30,Brisbane,Australia,153.1333,-27.4833,[152.6333 -27.9833 153.6333 -26.9833],1.307,0.412,2.685,1.635,1.277,0.607,2.18,1.472,220.0,507.0
2015-05-01,Brisbane,Australia,153.1333,-27.4833,[152.6333 -27.9833 153.6333 -26.9833],1.444,0.612,2.704,1.696,1.319,0.616,2.216,1.489,246.0,538.0
2015-05-02,Brisbane,Australia,153.1333,-27.4833,[152.6333 -27.9833 153.6333 -26.9833],1.444,0.484,2.956,1.747,1.364,0.653,2.275,1.525,226.0,562.0
2015-05-03,Brisbane,Australia,153.1333,-27.4833,[152.6333 -27.9833 153.6333 -26.9833],1.299,0.411,2.528,1.531,1.385,0.663,2.239,1.539,264.0,556.0
2015-05-04,Brisbane,Australia,153.1333,-27.4833,[152.6333 -27.9833 153.6333 -26.9833],1.444,0.469,2.675,1.668,1.391,0.684,2.237,1.543,234.0,573.0
2015-05-05,Brisbane,Australia,153.1333,-27.4833,[152.6333 -27.9833 153.6333 -26.9833],1.448,0.523,2.543,1.608,1.412,0.687,2.223,1.546,233.0,567.0
2015-05-06,Brisbane,Australia,153.1333,-27.4833,[152.6333 -27.9833 153.6333 -26.9833],1.404,0.517,2.383,1.526,1.459,0.738,2.21,1.564,240.0,576.0
2015-05-07,Brisbane,Australia,153.1333,-27.4833,[152.6333 -27.9833 153.6333 -26.9833],1.338,0.499,2.328,1.482,1.484,0.769,2.2,1.591,267.0,578.0
2015-05-08,Brisbane,Australia,153.1333,-27.4833,[152.6333 -27.9833 153.6333 -26.9833],1.359,0.514,2.383,1.518,1.519,0.813,2.28,1.641,286.0,564.0
2015-05-09,Brisbane,Australia,153.1333,-27.4833,[152.6333 -27.9833 153.6333 -26.9833],1.359,0.514,2.35,1.51,1.522,0.792,2.256,1.635,298.0,566.0
2015-05-10,Brisbane,Australia,153.1333,-27.4833,[152.6333 -27.9833 153.6333 -26.9833],1.321,0.517,2.3,1.499,1.506,0.786,2.271,1.643,303.0,555.0
2015-05-11,Brisbane,Australia,153.1333,-27.4833,[152.6333 -27.9833 153.6333 -26.9833],1.381,0.523,2.35,1.542,1.579,0.856,2.323,1.684,285.0,561.0
2015-05-12,Brisbane,Australia,153.1333,-27.4833,[152.6333 -27.9833 153.6333 -26.9833],1.403,0.566,2.35,1.527,1.581,0.866,2.386,1.695,252.0,560.0
2015-05-13,Brisbane,Australia,153.1333,-27.4833,[152.6333 -27.9833 153.6333 -26.9833],1.404,0.591,2.383,1.619,1.623,0.901,2.396,1.739,276.0,583.0
2015-05-14,Brisbane,Australia,153.1333,-27.4833,[152.6333 -27.9833 153.6333 -26.9833],1.359,0.566,2.3,1.556,1.602,0.905,2.404,1.734,249.0,573.0
2015-05-15,Brisbane,Australia,153.1333,-27.4833,[152.6333 -27.9833 153.6333 -26.9833],1.343,0.563,2.205,1.498,1.62,0.876,2.337,1.705,252.0,572.0
2015-05-16,Brisbane,Australia,153.1333,-27.4833,[152.6333 -27.9833 153.6333 -26.9833],1.209,0.517,2.075,1.403,1.577,0.864,2.31,1.681,248.0,577.0
2015-05-17,Brisbane,Australia,153.1333,-27.4833,[152.6333 -27.9833 153.6333 -26.9833],1.137,0.442,2.017,1.326,1.563,0.868,2.3,1.663,270.0,563.0
2015-05-18,Brisbane,Australia,153.1333,-27.4833,[152.6333 -27.9833 153.6333 -26.9833],1.209,0.499,2.127,1.462,1.606,0.901,2.411,1.732,230.0,520.0
2015-05-19,Brisbane,Australia,153.1333,-27.4833,[152.6333 -27.9833 153.6333 -26.9833],1.209,0.5,2.118,1.437,1.618,0.913,2.443,1.76,239.0,514.0
2015-05-20,Brisbane,Australia,153.1333,-27.4833,[152.6333 -27.9833 153.6333 -26.9833],1.024,0.389,2.107,1.379,1.643,0.927,2.534,1.797,209.0,530.0
2015-05-21,Brisbane,Australia,153.1333,-27.4833,[152.6333 -27.9833 153.6333 -26.9833],1.109,0.5,2.098,1.383,1.651,0.904,2.543,1.798,200.0,523.0
2015-05-22,Brisbane,Australia,153.1333,-27.4833,[152.6333 -27.9833 153.6333 -26.9833],1.425,0.567,2.221,1.627,1.697,0.894,2.532,1.837,204.0,533.0
2015-05-23,Brisbane,Australia,153.1333,-27.4833,[152.6333 -27.9833 153.6333 -26.9833],1.399,0.567,2.205,1.635,1.661,0.905,2.493,1.814,210.0,539.0
2015-05-24,Brisbane,Australia,153.1333,-27.4833,[152.6333 -27.9833 153.6333 -26.9833],1.399,0.568,2.218,1.651,1.62,0.929,2.52,1.847,198.0,526.0
2015-05-25,Brisbane,Australia,153.1333,-27.4833,[152.6333 -27.9833 153.6333 -26.9833],1.425,0.529,2.391,1.68,1.635,0.947,2.535,1.848,193.0,528.0
2015-05-26,Brisbane,Australia,153.1333,-27.4833,[152.6333 -27.9833 153.6333 -26.9833],1.499,0.615,2.391,1.649,1.575,0.9,2.498,1.804,222.0,520.0
2015-05-27,Brisbane,Australia,153.1333,-27.4833,[152.6333 -27.9833 153.6333 -26.9833],1.499,0.615,2.391,1.642,1.567,0.86,2.502,1.792,220.0,525.0
2015-05-28,Brisbane,Australia,153.1333,-27.4833,[152.6333 -27.9833 153.6333 -26.9833],1.94,0.731,2.958,2.04,1.672,0.843,2.664,1.883,222.0,523.0
2015-05-29,Brisbane,Australia,153.1333,-27.4833,[152.6333 -27.9833 153.6333 -26.9833],1.94,0.747,2.958,2.053,1.692,0.833,2.675,1.902,256.0,541.0
2015-05-30,Brisbane,Australia,153.1333,-27.4833,[152.6333 -27.9833 153.6333 -26.9833],1.94,0.812,3.126,2.075,1.717,0.83,2.803,1.933,238.0,530.0
2015-05-31,Brisbane,Australia,153.1333,-27.4833,[152.6333 -27.9833 153.6333 -26.9833],1.957,0.803,3.126,2.093,1.751,0.847,2.824,1.972,233.0,530.0
2015-06-01,Brisbane,Australia,153.1333,-27.4833,[152.6333 -27.9833 153.6333 -26.9833],2.036,1.001,3.145,2.2,1.76,0.851,2.878,1.992,230.0,536.0
2015-06-02,Brisbane,Australia,153.1333,-27.4833,[152.6333 -27.9833 153.6333 -26.9833],2.048,1.001,3.252,2.256,1.724,0.83,2.8,1.928,243.0,566.0
2015-06-03,Brisbane,Australia,153.1333,-27.4833,[152.6333 -27.9833 153.6333 -26.9833],2.107,1.076,3.418,2.32,1.732,0.848,2.805,1.934,234.0,570.0
2015-06-04,Brisbane,Australia,153.1333,-27.4833,[152.6333 -27.9833 153.6333 -26.9833],2.107,1.076,3.418,2.32,1.745,0.86,2.862,1.949,233.0,566.0
2015-06-05,Brisbane,Australia,153.1333,-27.4833,[152.6333 -27.9833 153.6333 -26.9833],2.17,1.001,3.538,2.373,1.842,0.89,2.965,2.044,214.0,582.0
2015-06-06,Brisbane,Australia,153.1333,-27.4833,[152.6333 -27.9833 153.6333 -26.9833],2.088,0.878,3.418,2.234,1.892,0.921,3.06,2.068,191.0,575.0
2015-06-07,Brisbane,Australia,153.1333,-27.4833,[152.6333 -27.9833 153.6333 -26.9833],2.122,0.927,3.418,2.227,1.97,0.962,3.07,2.072,176.0,582.0
2015-06-08,Brisbane,Australia,153.1333,-27.4833,[152.6333 -27.9833 153.6333 -26.9833],2.107,0.913,3.418,2.184,1.947,0.931,3.117,2.082,196.0,585.0
2015-06-09,Brisbane,Australia,153.1333,-27.4833,[152.6333 -27.9833 153.6333 -26.9833],2.107,0.913,3.418,2.184,1.956,0.925,3.126,2.063,196.0,573.0
2015-06-10,Brisbane,Australia,153.1333,-27.4833,[152.6333 -27.9833 153.6333 -26.9833],2.27,0.966,3.671,2.372,1.967,0.918,3.169,2.087,167.0,574.0
2015-06-11,Brisbane,Australia,153.1333,-27.4833,[152.6333 -27.9833 153.6333 -26.9833],2.409,1.255,3.662,2.505,2.057,1.075,3.227,2.164,195.0,563.0